Find Starlink 36478

NORAD ID: 67351 Int'l Des: 2026-003 Owner: SPXS Country: US Constellation: starlink operational
LEOCIRCULAR

当前视图

正在加载3D地球...

About Starlink 36478

Starlink 36478 (NORAD 67351) is a starlink constellation satellite (v2 mini) launched Jan 9, 2026 by SPXS of US. It operates in LEO, CIRCULAR orbit with a mass of 575.00 kg.

关于 Starlink 36478

正在加载描述...

即将过境

Passes for default location (London). Set your location on the main map for personalized predictions.

高度历史

Loading altitude history...

两行轨道根数

1 67351U 26003T 26194.59756658 .00008792 00000-0 32852-3 0 9995
2 67351 42.9963 235.6803 0001354 303.8450 56.2273 15.27589917 28087
Epoch: Jul 13, 2026 • Age: 16 hours

当前状态

高度 484.8 km
远地点 / 近地点 N/A
速度 7.63 km/s
星下点 32.11°N, 21.26°W
发射日期 Jan 9, 2026
运行时间 0.5 years
类型 internet

技术详情

分类 Payload
质量 575.00 kg
干质量 530.00 kg
总质量 575.00 kg
长度 0.30 m
直径 4.10 m
跨度 29.00 m
形状 Box + pan
制造商 SPXS
平台类型 Starlink V2MO
阶段状态 In Orbit
所有者/国家 SPXS/US

Most Searched